Regional Weather Roundup
Issued by NWS

Home | Current Version | Previous Version | Graphics & Text | Print | Product List | Glossary On
Versions: 1 2 3 4 5 6 7 8 9 10 11 12 13 14 15 16 17 18 19 20 21 22 23 24 25 26 27
000
ASUS45 KSLC 252110
RWRUT

UTAH REGIONAL WEATHER ROUNDUP
NATIONAL WEATHER SERVICE SALT LAKE CITY UT
300 PM MDT FRI MAY 25 2018

UTZ001>011-023>025-252200-

NORTHERN UTAH

CITY           SKY/WX    TMP DP  RH WIND       PRES   REMARKS
BRIGHAM CITY   SUNNY     82  33  16 SW6       29.93F
HILL AFB       SUNNY     82  37  20 NW8       29.94F
LOGAN          SUNNY     82  44  26 VRB3      29.92F
OGDEN          SUNNY     82  33  17 VRB6      29.92F
SALT LAKE CITY MOSUNNY   88  34  14 SE12G20   29.89F
TOOELE VALLEY  SUNNY     88  34  14 S14G22    29.91F
WENDOVER       SUNNY     87  26  11 SE24      29.86F
HEBER CITY       N/A     84  32  15 SW12G21   29.95F
WEST JORDAN    SUNNY     84  43  23 SE8       29.93F

$$

UTZ011>015-024>027-252200-

CENTRAL/NORTHEAST UTAH

CITY           SKY/WX    TMP DP  RH WIND       PRES   REMARKS
PROVO AIRPORT  MOSUNNY   83  35  18 NW5       29.94F
MOAB/CANYONLAN SUNNY     90  11   5 SW21G26   29.95F
DELTA          SUNNY     82  21  10 SW12G23   29.94F
PRICE          SUNNY     84  15   7 S16G25    30.04F
ROOSEVELT      SUNNY     88  21   8 E6        29.98F
VERNAL         SUNNY     88  23   9 SE8       29.98F

$$

UTZ013>016-019>022-027-252200-

SOUTHERN UTAH

CITY           SKY/WX    TMP DP  RH WIND       PRES   REMARKS
BRYCE CANYON   SUNNY     72   9   8 S16G28    30.20F
CEDAR CITY     SUNNY     80  16   9 SW21G40   30.02F
MILFORD        SUNNY     84  20   9 S26G36    29.95F
ST GEORGE      CLEAR     91  30  11 SW17G25   29.87F
HANKSVILLE     SUNNY     90  19   7 S14G28    29.98F
BLANDING         N/A     81  16   9 SW12G23   30.19F

$$

REGIONAL REPORTS     COLORADO/ARIZONA

CITY           SKY/WX    TMP DP  RH WIND       PRES   REMARKS
CRAIG, CO      SUNNY     84  29  13 SW7       30.07F
GRAND JUNCTION SUNNY     91  14   6 W21G28    29.97F
RIFLE, CO      SUNNY     88  18   7 NW7G22    30.02F
MONTROSE, CO   SUNNY     88   3   4 W13G26    30.04F
CORTEZ, CO     SUNNY     85  16   7 SW14      30.12F
COLORADO CITY    N/A     88  21   8 S14G22    30.05F
PAGE, AZ       SUNNY     89  14   6 S10       29.98F
GRAND CANYON   SUNNY     78  19  11 S20G30    30.19F
KINGMAN, AZ    SUNNY     88  23   9 SW31G40   29.99S
FLAGSTAFF, AZ  SUNNY     74  19  12 SW24G31   30.23F

$$

REGIONAL REPORTS    NEVADA/IDAHO/WYOMING

CITY           SKY/WX    TMP DP  RH WIND       PRES   REMARKS
LAS VEGAS, NV  MOSUNNY   90  26  10 S18G32    29.86F
ELY, NY        SUNNY     75  25  15 SE28G37   29.99F
ELKO, NV       MOSUNNY   77  32  19 S16       29.89F
POCATELLO, ID  SUNNY     86  38  18 S13G22    29.91F
BURLEY, ID     PTSUNNY   86  38  18 SE7       29.85F
FORT BRIDGER,  MOCLDY    76  28  16 W3G16     30.12F
EVANSTON, WY   MOSUNNY   76  37  24 S9        30.08F
ROCK SPRINGS,  SUNNY     79  22  12 SW7G25    30.08F

$$




USA.gov is the U.S. government's official web portal to all federal, state and local government web resources and services.